Content
SEND FEEDBACK

Daily
Averages
Monthly
Summary
French Polynesia

PAPEETE, FRENCH POLYNESIA


Home > Oceania > French Polynesia
Elevation: 7 feet     Latitude: 17 33S     Longitude: 149 36W

WEATHER
 
SELECT A DAY
Number of Records: 208,079;   Date Range: 6/30/96 - 7/20/14
 
SHARE

PRINT THIS DATA

[ ← Previous Day ]
WEATHER ALMANAC - JUNE 19, 2013
[ Next Day → ]
[ °C ]   °F
Weather ElementAverageHighLow
Temperature77.1 °F84.2 °F (12:00 pm)69.8 °F (2:00 am)
Dewpoint63.7 °F68 °F (5:00 pm)59 °F (6:00 am)
Humidity62.8 %78 % (12:30 am)42 % (11:00 am)
Barometer29.96 in30.02 in (8:00 am)29.92 in (3:00 am)
Wind Speed5.8 mph20.1 mph (2:00 pm)
Weather ElementAverage
Visibility7.8 mi
Wind DirectionSSE (158.2 °)

Weather ElementTotal
Precipitation---
Cooling Degree Days12 (Base 65)
Growing Degree Days27 (Base 50)
Averaged from 55 records on June 19, 2013
WEATHER CONDITIONS BREAKOUT
WIND DIRECTION BREAKOUT
WEATHER BY HOUR - JUNE 19, 2013
[ °C ]   °F
Local TimeTemperatureDewpointHumidityBarometerVisibilityWind DirectionWind SpeedGust SpeedPrecipitationEventsConditions
12:30 AM71.6 °F64.4 °F78 %29.95 in6.2 miESE (110°)4.6 mphScattered Clouds
1:00 AM71.6 °F64.4 °F78 %29.95 in6.2 miEast (90°)4.6 mphScattered Clouds
1:30 AM71.6 °F62.6 °F73 %29.95 in6.2 miESE (120°)2.3 mphScattered Clouds
2:00 AM71.0 °F63.0 °F69 %29.95 in12.0 miEast (100°)5.8 mphScattered Clouds
2:00 AM69.8 °F62.6 °F78 %29.95 in6.2 miEast (100°)5.8 mphPartly Cloudy
2:30 AM69.8 °F62.6 °F78 %29.95 in6.2 miESE (110°)4.6 mphPartly Cloudy
3:00 AM69.8 °F62.6 °F78 %29.92 in6.2 miESE (110°)4.6 mphPartly Cloudy
3:30 AM69.8 °F62.6 °F78 %29.92 in6.2 miVariable2.3 mph
4:00 AM69.8 °F60.8 °F73 %29.92 in6.2 miSouth (170°)6.9 mph
4:30 AM71.6 °F60.8 °F69 %29.95 in6.2 miSouth (170°)9.2 mph
5:00 AM71.0 °F61.0 °F63 %29.96 in37.0 miSouth (170°)10.4 mphClear
5:00 AM71.6 °F60.8 °F69 %29.95 in6.2 miSouth (170°)10.4 mph
5:30 AM73.4 °F60.8 °F65 %29.95 in6.2 miSouth (170°)8.1 mph
6:00 AM73.4 °F59.0 °F61 %29.98 in6.2 miSSE (150°)5.8 mphPartly Cloudy
6:30 AM71.6 °F59.0 °F64 %29.98 in6.2 miEast (90°)6.9 mphPartly Cloudy
7:00 AM71.6 °F59.0 °F64 %29.98 in6.2 miEast (100°)5.8 mphPartly Cloudy
7:30 AM73.4 °F59.0 °F61 %30.01 in6.2 miEast (90°)4.6 mphPartly Cloudy
8:00 AM77.0 °F61.0 °F48 %30.02 in19.0 miEast (80°)6.7 mphPartly Cloudy
8:00 AM77.0 °F60.8 °F57 %30.01 in6.2 miEast (80°)3.5 mphPartly Cloudy
8:30 AM78.8 °F60.8 °F54 %30.01 in6.2 miCalmPartly Cloudy
9:00 AM80.6 °F62.6 °F54 %30.01 in6.2 miVariable3.5 mphPartly Cloudy
9:30 AM80.6 °F62.6 °F54 %30.01 in6.2 miSW (230°)5.8 mphPartly Cloudy
10:00 AM82.4 °F62.6 °F51 %30.01 in6.2 miVariable3.5 mphPartly Cloudy
10:30 AM82.4 °F62.6 °F51 %30.01 in6.2 miWest (280°)5.8 mphPartly Cloudy
11:00 AM82.0 °F63.0 °F42 %30.01 in19.0 miWest (280°)4.6 mphScattered Clouds
11:00 AM82.4 °F62.6 °F51 %30.01 in6.2 miWest (280°)4.6 mphPartly Cloudy
11:30 AM82.4 °F62.6 °F51 %29.98 in6.2 miWNW (290°)5.8 mphPartly Cloudy
12:00 PM84.2 °F64.4 °F51 %29.98 in6.2 miWest (270°)5.8 mphPartly Cloudy
12:30 PM84.2 °F60.8 °F45 %29.95 in6.2 miVariable3.5 mphPartly Cloudy
1:00 PM84.2 °F62.6 °F48 %29.95 in6.2 miNNW (340°)3.5 mphPartly Cloudy
1:30 PM84.2 °F66.2 °F55 %29.92 in6.2 miNorth (360°)11.5 mphPartly Cloudy
2:00 PM83.0 °F65.0 °F46 %29.94 in19.0 miNNW (340°)20.1 mphPartly Cloudy
2:00 PM82.4 °F66.2 °F58 %29.92 in6.2 miNNW (340°)10.4 mphPartly Cloudy
2:30 PM82.4 °F64.4 °F54 %29.92 in6.2 miNW (320°)9.2 mphScattered Clouds
3:00 PM82.4 °F64.4 °F54 %29.92 in6.2 miNW (320°)9.2 mphScattered Clouds
3:30 PM82.4 °F66.2 °F58 %29.92 in6.2 miWNW (290°)8.1 mphScattered Clouds
4:00 PM84.2 °F64.4 °F51 %29.92 in6.2 miNW (310°)3.5 mphScattered Clouds
4:30 PM82.4 °F66.2 °F58 %29.92 in6.2 miWNW (300°)4.6 mphScattered Clouds
5:00 PM80.0 °F68.0 °F58 %29.94 in11.0 miWest (260°)13.4 mphMostly Cloudy
5:00 PM80.6 °F68.0 °F65 %29.92 in6.2 miWest (260°)6.9 mphScattered Clouds
5:30 PM78.8 °F68.0 °F69 %29.95 in6.2 miWest (270°)9.2 mphMostly Cloudy
6:00 PM78.8 °F66.2 °F65 %29.95 in6.2 miVariable2.3 mphMostly Cloudy
6:30 PM78.8 °F64.4 °F61 %29.95 in6.2 miVariable3.5 mphMostly Cloudy
7:00 PM77.0 °F66.2 °F69 %29.95 in6.2 miCalmMostly Cloudy
7:30 PM77.0 °F66.2 °F69 %29.98 in6.2 miSouth (170°)3.5 mphMostly Cloudy
8:00 PM77.0 °F66.0 °F60 %30.00 in9.0 miSouth (170°)6.7 mphMostly Cloudy
8:00 PM77.0 °F66.2 °F69 %29.98 in6.2 miSouth (170°)3.5 mphMostly Cloudy
8:30 PM77.0 °F66.2 °F69 %29.98 in6.2 miVariable3.5 mphMostly Cloudy
9:00 PM77.0 °F66.2 °F69 %29.98 in6.2 miENE (70°)3.5 mphMostly Cloudy
9:30 PM75.2 °F66.2 °F73 %29.98 in6.2 miSSE (160°)3.5 mphScattered Clouds
10:00 PM75.2 °F66.2 °F73 %30.01 in6.2 miSSE (160°)3.5 mphScattered Clouds
10:30 PM75.2 °F66.2 °F73 %29.98 in6.2 miEast (100°)4.6 mphMostly Cloudy
11:00 PM74.0 °F66.0 °F71 %30.00 in9.0 miEast (90°)5.8 mphMostly Cloudy
11:00 PM73.4 °F66.2 °F78 %29.98 in6.2 miEast (90°)5.8 mphMostly Cloudy
11:30 PM75.2 °F66.2 °F73 %29.98 in6.2 miVariable1.2 mphMostly Cloudy
Hourly data recorded from NTAA, located miles away from Papeete, French Polynesia







STORIES FROM OUR PARTNERS